Voltar ao catálogo

SL-8 DEB

AtivoLEO
NORAD 5052·DEBRIS·🇷🇺 Russia

Lançado Mar 18, 1971 de Plesetsk Cosmodrome

Loading…

Próximas Passagens (próximas 24 horas)

TLE

AtualizadoSource: Space-Track

Época: Sep 14, 2026, 13:01 UTC

1 05052U 71020C   26257.54289649 -.00000051  00000-0  31214-4 0  9993
2 05052  65.8188 271.0556 0005953 244.8575 196.8769 13.73653886781487

Acompanhe SL-8 DEB em tempo real com AllMySat

Download on the App Store